一网星座-0041星 (ONEWEB-0041 )

导读 | 豆包AI

ONEWEB-0041是英国OneWeb公司全球卫星互联网星座的正式工作卫星,由空客防务与航天公司制造,于2020年2月6日在拜科努尔航天发射场搭乘联盟号火箭成功发射,属于一箭34星组网任务。卫星重约147kg,设计寿命7年,运行在1200公里高度的近地轨道,采用Ku波段通信载荷,依托地面信关站为全球提供高速宽带互联网接入服务,是OneWeb初步构建低轨通信星座的重要组成部分。

基本信息
目录编号:
45148
目录名称:
ONEWEB-0041
国际标识:
2020-008T
轨道中心:
EARTH
卫星名称:
一网星座-0041星
卫星全名:
一网星座-0041星 (ONEWEB-0041 )
卫星状态:
在轨 (已飞行2228 天)
发射日期:
2020-02-06 UTC
国别 :
英国 (GB)
星等 :
--
轨道信息
数据来源 国际轨道数据
星历时间: 2026-03-13T14:16:00+0800
19小时前
查看轨道信息
半长轴: 7455.575km
偏心率: 0.0018478
轨道倾角: 87.938°
近地点辐角 144.267°
升交点赤经 23.935°
平近点角 215.972°
近地点: 1063.661km
远地点: 1091.215km
周期: 106.778分钟
每日圈数: 13.485936
详细信息
平衡模式:
三轴稳定
覆盖范围:
全球
运营商:
一网卫星公司
运营商所在国:
英国
制造商(研发单位):
一网卫星公司
制造商所在国:
英国
使用方式:
暂无
卫星简介
OneWeb卫星网络由648颗重约125公斤的微型卫星组成,运行在1200公里的轨道上。 每颗卫星都能够提供至少每秒8千兆位的吞吐量,以使用其高吞吐量的Ku频段有效载荷为家庭和移动平台提供互联网接入。该卫星已退役。
2D轨道图
3D轨道图
轨道高度分析图
轨道倾角分析图
轨道综合分析图
查看轨道综合分析图